Zurück zum Katalog

COSMOS 252 DEB

AktivLEO
NORAD 3784·DEBRIS·🇷🇺 Russia

Gestartet Nov 1, 1968 von Baikonur Cosmodrome

Loading…

Nächste Überflüge (nächste 24 Stunden)

TLE

AktuellSource: Space-Track

Epoche: Sep 14, 2026, 01:50 UTC

1 03784U 68097AW  26257.07683780  .00002628  00000-0  15798-2 0  9993
2 03784  62.2398 136.4385 0637361  85.3781 281.9694 13.37572229 81887

Verfolge COSMOS 252 DEB in Echtzeit mit AllMySat

Download on the App Store